Tracking 29594 objects as of 20-Sep-2024
HD Live streaming from Space Station
objects crossing your sky now

SL-8 DEB *

Track SL-8 DEB * now!
10-day predictions


NORAD ID: 3743
Int'l Code: 1965-020ES
Perigee: 1,385.8 km
Apogee: 1,808.2 km
Inclination: 56.7 °
Period: 118.0 minutes
Semi major axis: 7967 km
RCS: 0.0769 m2 (small)
Launch date: March 15, 1965
Source: Commonwealth of Independent States (former USSR) (CIS)
Launch site: TYURATAM MISSILE AND SPACE COMPLEX (TTMTR)

Note: This is SATELLITE DEBRIS
Your satellite tracking list
Your tracking list is empty




NASA's NSSDC Master Catalog

Two Line Element Set (TLE):
1 03743U 65020ES  24263.74057442 -.00000009  00000-0  67055-3 0  9996
2 03743  56.6602  61.6269 0265060  37.4008  56.5053 12.20616421496564
Source of the keplerian elements: AFSPC